Weather in Tymlat

Russia / Kamchatka Krai     59°29′22″N   163°11′18″E
temp.,
°C
wind,
m/s
gust,
m/s
humid.,
%
clouds,
%
prec.,
mm/h
press.,
hPa
HPBL,
m
20 june, sun
sun2000:00+6ese4797100 2.1 1013306
03:00+6ese4797100 1.4 1014342
06:00+6e4897100 3.7 1014377
09:00+6ene5894100 0.8 1016434
12:00+6ene5891100 0.9 1016445
15:00+6ene5790100 0.1 1015404
18:00+7ene5990100 0.2 1015407
21:00+6ne3693100 0.1 1015281
21 june, mon
mon2100:00+6n3492100 0.1 1015156
03:00+6nw339099 0.0 101549
06:00+7nw3388100 0.1 101452
09:00+8nnw3379100 0.0 1014155
12:00+10ne246797 0.0 1014597
15:00+10n1365100 0.0 1014492
18:00+12wnw2262100 0.0 1013272
21:00+10sse3473100 0.0 101481
22 june, tue
tue2200:00+9nnw2271100 0.0 101425
03:00+8ene2279100 0.0 101466
06:00+8nne1182100 0.0 101566
09:00+9e1178100 0.0 1015214
12:00+10ese227595 0.0 1015345
15:00+10se3372100 0.0 1015355
18:00+11sse3371100 0.0 1014253
21:00+10s2275100 0.0 101456
23 june, wed
wed2300:00+9wsw22825 0.0 101311
03:00+8w22854 0.0 101310
06:00+10w11803 0.0 101331
09:00+12s01675 0.0 1013278
12:00+14se326123 0.0 1012534
15:00+14ssw336496 0.0 1011167
18:00+15n2359100 0.0 1012406
21:00+14nw336274 0.0 101230
24 june, thu
thu2400:00+11nw336877 0.0 101212
03:00+10nw227439 0.0 101212
06:00+11wnw227257 0.0 101146
09:00+12wsw126326 0.0 1011363
12:00+15se325912 0.0 1009756
15:00+14s456325 0.1 1008342
18:00+15s43627 0.1 1006399
21:00+13s34685 0.0 100658